Mukilteo, WA

6:36 PM PST on February 22, 2017 (GMT -0800)
Snohomish County

Weather History for KPAE - November, 2013

Change the Weather History Date:

Wednesday, November 6, 2013

  Actual Average Record
Temperature  
Mean Temperature 46 °F -  
Max Temperature 50 °F 53 °F 60 °F (1950)
Min Temperature 42 °F 40 °F 27 °F (1971)
Degree Days  
Heating Degree Days 19    
Moisture  
Dew Point 42 °F    
Average Humidity 84    
Maximum Humidity 100    
Minimum Humidity 66    
Precipitation  
Precipitation 0.03 in - - ()
Sea Level Pressure  
Sea Level Pressure 30.23 in    
Wind  
Wind Speed 4 mph (ESE)    
Max Wind Speed 12 mph    
Max Gust Speed 18 mph    
Visibility 10 miles    
Events Rain    
Averages and records for this station are not official NWS values.
T = Trace of Precipitation, MM = Missing Value Source: NWS Daily Summary

Daily Weather History Graph

Daily Weather History Graph

Search for Another Location

Airport or City:

Trip Planner

Search our weather history database for the weather conditions in past years. The results will help you decide how hot, cold, wet, or windy it might be!

Date:

Astronomy

Nov. 06, 2013 Rise Set
Actual Time 7:02 AM PST 4:42 PM PST
Civil Twilight 6:29 AM PST 5:15 PM PST
Nautical Twilight 5:52 AM PST 5:52 PM PST
Astronomical Twilight 5:15 AM PST 6:28 PM PST
Moon 10:28 AM PST (11/6) 7:47 PM PST (11/6)
Length of Visible Light 10h 46m
Length of Day
9h 40m
Waxing Crescent, 14% of the Moon is Illuminated
Nov 6
Waxing Crescent
Nov 9
First Quarter
Nov 17
Full
Nov 25
Last Quarter
Dec 2
New

Hourly Weather History & Observations

Time (PST) Temp. Windchill Dew Point Humidity Pressure Visibility Wind Dir Wind Speed Gust Speed Precip Events Conditions
12:28 AM 44.6 °F 43.1 °F 42.8 °F 93% 30.27 in 10.0 mi ESE 3.5 mph - N/A   Overcast
12:39 AM 44.6 °F 43.1 °F 42.8 °F 93% 30.26 in 10.0 mi ESE 3.5 mph - N/A   Overcast
12:53 AM 45.0 °F 42.6 °F 42.1 °F 90% 30.27 in 9.0 mi ESE 4.6 mph - N/A   Overcast
1:32 AM 42.8 °F 41.1 °F 42.8 °F 100% 30.27 in 4.0 mi ESE 3.5 mph - N/A   Overcast
1:49 AM 44.6 °F - 42.8 °F 93% 30.28 in 6.0 mi Calm Calm - N/A   Overcast
1:53 AM 44.1 °F - 42.1 °F 93% 30.29 in 6.0 mi Calm Calm - N/A   Overcast
2:53 AM 44.1 °F 42.5 °F 41.0 °F 89% 30.29 in 10.0 mi ESE 3.5 mph - N/A   Overcast
3:53 AM 44.1 °F 42.5 °F 41.0 °F 89% 30.29 in 10.0 mi ESE 3.5 mph - N/A   Overcast
4:53 AM 43.0 °F - 41.0 °F 93% 30.30 in 10.0 mi Calm Calm - N/A   Partly Cloudy
5:53 AM 43.0 °F - 41.0 °F 93% 30.30 in 10.0 mi Calm Calm - N/A   Clear
6:53 AM 43.0 °F 40.3 °F 39.9 °F 89% 30.31 in 10.0 mi ESE 4.6 mph - N/A   Overcast
7:53 AM 43.0 °F 39.5 °F 39.9 °F 89% 30.32 in 10.0 mi ESE 5.8 mph - N/A   Clear
8:53 AM 44.1 °F 40.1 °F 39.9 °F 85% 30.33 in 10.0 mi ESE 6.9 mph - 0.01 in   Scattered Clouds
9:53 AM 46.0 °F 43.9 °F 41.0 °F 83% 30.33 in 10.0 mi Variable 4.6 mph - N/A   Mostly Cloudy
10:53 AM 46.9 °F - 42.1 °F 83% 30.33 in 10.0 mi Calm Calm - N/A   Overcast
11:53 AM 48.0 °F - 43.0 °F 83% 30.31 in 10.0 mi Calm Calm - N/A   Overcast
12:53 PM 48.0 °F - 42.1 °F 80% 30.29 in 10.0 mi East 4.6 mph - N/A   Mostly Cloudy
1:53 PM 48.9 °F - 41.0 °F 74% 30.27 in 10.0 mi Calm Calm - N/A   Overcast
2:53 PM 50.0 °F - 39.0 °F 66% 30.25 in 10.0 mi Calm Calm - N/A   Overcast
3:53 PM 50.0 °F - 39.9 °F 68% 30.23 in 10.0 mi ESE 6.9 mph - N/A   Overcast
4:53 PM 48.9 °F - 41.0 °F 74% 30.21 in 10.0 mi ESE 5.8 mph - N/A   Overcast
5:53 PM 48.9 °F - 41.0 °F 74% 30.21 in 10.0 mi ESE 6.9 mph - N/A   Overcast
6:53 PM 48.9 °F - 42.1 °F 77% 30.19 in 9.0 mi Calm Calm - 0.00 in Rain Light Rain
7:53 PM 48.0 °F - 43.0 °F 83% 30.17 in 10.0 mi ESE 4.6 mph - 0.01 in   Overcast
8:53 PM 46.9 °F - 42.1 °F 83% 30.14 in 10.0 mi ESE 8.1 mph - 0.01 in   Overcast
9:53 PM 46.9 °F - 42.1 °F 83% 30.10 in 10.0 mi ESE 10.4 mph - 0.00 in   Overcast
10:32 PM 46.4 °F 42.9 °F 42.8 °F 87% 30.07 in 10.0 mi Variable 6.9 mph - N/A   Overcast
10:53 PM 48.0 °F - 42.1 °F 80% 30.06 in 10.0 mi SSE 11.5 mph 18.4 mph N/A   Overcast
11:02 PM 48.2 °F - 42.8 °F 82% 30.05 in 10.0 mi SSE 9.2 mph 18.4 mph N/A   Overcast
11:10 PM 48.2 °F - 42.8 °F 82% 30.05 in 10.0 mi SSE 10.4 mph - N/A   Overcast
11:53 PM 48.0 °F - 42.1 °F 80% 30.03 in 10.0 mi SSE 9.2 mph - 0.00 in Rain Light Rain